ジョンソン彗星

48P/Johnson (2025)

English version
Home page
Updated on January 31, 2026

---------------------------------------------------------------------

・ プロフィール

・ 写真集

・ 軌道要素

Epoch 2025 May 5.0 TT = JDT 2460800.5
T 2025 Mar. 2.63973 TT                                  Pike
q   2.0065823            (2000.0)            P               Q
n   0.15057499     Peri.  216.77301     +0.82441586     +0.53002401
a   3.4991896      Node   110.06410     -0.45580942     +0.82968856
e   0.4265580      Incl.   12.20174     -0.33552387     +0.17518974
P   6.55
From 1063 observations 2018 Feb. 16-2025 Aug. 5, mean residual 0".6.
     Nongravitational parameters A1 = +0.37, A2 = +0.0473.

・ 星図

・ 光度変化

        m1 = 14.5 + 5 logΔ +  5.0 log r          [    ,-260]  (              〜2024年 6月15日)
        m1 =  5.0 + 5 logΔ + 25   log r(t - 40)  [-260, 360]  (2024年 6月15日〜2026年 2月25日)
        m1 = 14.5 + 5 logΔ +  5.0 log r          [ 360,    ]  (2026年 2月25日〜              )

---------------------------------------------------------------------

軌道要素はM.P.E.C. 2025-P113に掲載されたものです。
星図はステラナビゲータ Ver.10 (アストロアーツ) で作成したものです。
光度グラフはComet for Windowsで作成したものです。

---------------------------------------------------------------------

Copyright(C) Seiichi Yoshida (comet@aerith.net). All rights reserved.